Theta_e
353 352 352 349 349 350 350 352 351 351 353 354 354 354 354 353 353 352 353 353 353 355 355 354 353 354 352 350 349 350 350 350 350 351 352 353 353 353 354 354 354 354 353 352 350 345 338 337 338 338 336 337 340 341 342 343 344 346 348 348 348 348 347 348 350 351 350 349 349 349 350 350 350 349 350 351 350 349 348 349 352 353 353 352 350
353 353 352 349 349 350 350 353 351 352 353 353 353 353 354 354 354 354 353 352 353 355 355 354 354 353 350 349 347 346 346 347 347 349 352 353 354 353 353 353 354 353 353 352 350 347 344 343 344 343 340 340 342 342 342 342 342 342 343 345 347 348 347 347 349 350 350 350 349 349 350 350 351 349 348 348 348 348 347 351 352 352 352 351 351
353 354 353 349 350 352 351 352 352 353 353 352 352 353 353 354 354 354 354 352 353 354 354 353 353 353 350 348 344 343 343 344 345 347 349 352 353 353 353 352 353 353 353 352 351 350 351 350 349 350 350 351 351 350 350 349 348 345 345 342 340 342 343 344 346 348 351 350 350 350 350 350 351 350 347 346 346 346 346 350 352 351 351 351 352
354 355 354 350 350 353 352 353 353 353 353 352 352 353 353 353 354 354 354 353 354 354 353 353 353 353 350 346 343 343 343 343 343 344 347 349 350 352 352 351 352 352 352 351 351 351 351 351 350 351 352 352 352 350 351 351 350 349 349 345 338 332 330 333 335 341 347 349 350 350 350 351 351 350 348 346 345 344 344 347 349 349 349 350 351
354 355 355 352 351 353 352 352 352 353 352 351 352 352 352 353 354 354 354 353 353 353 353 354 353 353 351 349 348 347 345 344 344 344 346 347 349 350 350 350 351 351 351 349 349 350 349 350 350 351 351 351 350 350 350 350 350 350 350 350 345 338 332 331 329 332 337 342 348 349 350 352 352 349 348 347 345 345 344 345 346 347 348 348 350
354 354 354 355 354 353 351 352 351 353 352 352 353 352 352 352 354 354 353 352 353 353 353 354 353 353 352 352 352 350 345 343 342 342 343 344 345 345 345 347 349 350 349 348 348 349 350 350 350 350 350 350 350 350 350 350 350 350 350 350 349 347 343 338 335 334 336 341 346 347 348 350 351 350 348 347 347 347 346 346 347 348 348 348 350
353 354 354 354 355 352 351 351 351 353 353 353 354 353 353 352 353 353 353 353 353 353 354 354 354 352 352 353 353 350 346 343 342 342 343 343 342 342 344 345 346 347 347 347 348 350 350 349 349 349 349 349 351 350 350 350 349 349 348 348 349 349 348 344 340 340 344 346 347 348 348 349 350 349 345 345 347 348 347 347 347 347 347 348 349
353 354 354 354 355 352 351 352 352 354 354 354 354 354 353 351 351 352 353 353 353 354 354 354 353 352 352 353 353 349 346 345 344 344 345 345 346 346 347 347 347 347 346 345 346 347 347 346 347 349 351 351 351 350 349 349 349 349 348 348 348 348 349 348 345 343 346 348 348 348 349 348 349 348 345 345 345 346 347 346 346 346 346 347 349
354 355 354 356 355 352 352 353 353 353 354 353 353 353 352 350 351 352 353 353 354 354 354 354 353 353 352 352 352 349 347 348 347 345 345 346 348 350 349 348 349 349 347 345 345 346 343 344 346 349 351 352 352 350 349 349 349 348 348 348 348 348 348 348 348 347 348 348 349 348 348 348 348 348 347 347 347 346 348 348 347 347 346 347 349
354 355 354 355 354 352 353 353 353 352 353 353 353 353 351 349 351 352 352 353 354 354 353 353 353 353 352 353 352 350 350 350 350 348 348 349 350 350 350 350 350 348 348 348 348 347 342 342 345 348 350 351 351 349 348 348 348 348 348 348 348 348 348 348 350 350 348 349 349 349 347 348 349 346 342 343 346 346 346 347 348 348 347 346 345
354 355 354 355 353 352 353 352 351 351 352 353 353 353 350 349 351 352 352 353 354 354 353 353 354 353 352 353 353 351 352 352 351 351 349 349 350 349 349 349 348 348 349 349 348 347 343 342 345 347 348 348 349 348 347 347 347 348 349 350 349 346 347 349 351 351 349 349 349 349 347 347 350 346 340 341 346 346 345 346 347 346 345 342 335
353 355 355 355 353 351 351 351 350 350 351 352 353 353 351 350 351 352 352 352 353 353 353 353 354 353 352 352 352 352 352 352 352 352 351 349 348 348 349 349 348 349 350 348 346 346 344 342 343 345 346 346 347 347 347 347 347 347 348 350 350 346 347 349 352 351 350 350 348 348 348 348 350 347 345 347 348 349 348 347 347 346 345 345 336
353 354 354 354 353 351 350 349 349 350 350 352 353 353 352 350 350 352 353 352 352 352 351 352 353 353 352 351 351 352 353 353 353 352 351 350 349 348 348 348 347 347 347 345 343 343 342 341 341 342 343 344 346 347 347 347 346 347 347 349 351 349 348 349 351 352 351 350 349 349 349 349 349 345 347 349 348 347 346 345 345 345 344 346 345
353 354 354 355 354 351 350 348 349 350 350 352 353 353 352 350 349 351 352 352 351 351 351 351 352 352 351 350 350 351 353 354 353 352 351 351 350 348 346 345 344 344 343 343 343 342 342 342 341 342 343 344 345 345 345 345 345 345 347 348 351 351 349 350 350 351 352 351 350 349 349 350 348 343 345 348 347 347 346 347 347 347 345 344 344
353 354 355 355 355 352 350 348 349 350 350 350 351 352 353 351 349 350 352 352 351 351 351 351 350 350 350 350 350 351 352 353 353 352 351 351 349 346 344 343 343 342 342 342 342 342 342 342 342 342 343 343 343 344 343 344 345 346 347 348 350 351 350 350 351 350 352 351 351 349 349 350 344 341 346 348 348 349 349 350 350 350 350 348 345
352 354 355 355 355 354 352 349 349 349 348 348 348 351 352 351 350 350 351 351 351 351 350 350 349 349 349 349 349 349 350 352 353 351 350 347 344 342 341 341 342 342 342 342 342 342 342 342 341 342 342 342 343 344 344 345 347 346 349 349 349 351 348 349 351 350 351 351 351 350 349 348 340 341 348 349 350 350 350 351 351 352 351 351 349
352 353 355 355 356 356 355 352 350 348 347 347 349 351 351 350 350 350 350 350 350 351 349 350 350 349 348 348 347 348 350 351 351 349 347 343 339 339 339 340 340 341 341 341 342 341 342 342 342 343 343 344 344 345 346 347 347 348 349 349 350 351 346 349 351 349 351 350 350 350 350 349 342 344 349 350 351 350 351 351 350 351 351 350 351
352 353 354 355 357 356 356 355 352 352 351 350 350 351 351 349 349 349 349 350 350 350 349 350 351 349 348 348 346 347 349 351 350 348 346 341 339 339 338 339 340 340 341 341 342 341 342 343 343 344 344 345 345 346 346 346 347 347 348 350 350 346 343 349 351 348 349 349 350 350 349 349 345 347 349 350 351 351 351 350 347 346 346 347 348
352 352 353 356 357 355 356 356 355 356 355 354 351 350 351 350 349 349 349 350 349 348 348 348 350 349 348 346 346 347 348 350 349 349 347 341 342 343 338 337 338 339 341 341 341 341 342 342 342 344 344 345 346 346 346 346 346 347 350 351 346 342 344 350 350 347 349 349 349 350 349 346 346 347 347 350 351 351 350 346 342 341 342 343 344
352 351 352 355 357 356 356 356 356 356 356 356 351 349 350 349 349 350 349 349 348 348 347 348 349 348 348 348 348 348 349 351 350 349 347 341 341 342 337 336 338 339 340 340 341 344 344 344 344 344 345 345 345 346 346 346 347 349 348 344 343 347 351 350 347 347 348 346 347 349 347 344 345 345 345 349 348 346 345 341 340 341 345 346 347
352 351 352 353 354 356 356 356 357 356 356 356 353 351 349 349 349 349 349 348 348 349 348 348 349 349 350 350 348 348 351 353 351 350 349 344 338 335 336 338 339 339 340 343 346 348 347 345 344 344 345 344 346 348 346 344 345 344 341 341 348 352 350 347 346 347 346 344 347 346 341 341 343 341 343 346 343 341 341 340 342 346 349 349 350
351 351 351 351 352 354 356 356 356 356 356 356 356 353 349 348 349 349 349 349 349 350 349 349 350 350 349 349 348 350 354 354 353 352 351 348 340 334 337 338 339 341 345 349 349 349 347 345 345 345 345 344 347 350 346 343 342 338 340 347 352 350 348 348 347 347 347 348 349 343 336 340 341 341 345 346 344 343 344 346 347 349 351 349 349
350 351 351 351 352 352 354 355 356 357 356 356 356 354 352 351 350 349 349 349 349 349 350 350 350 350 350 350 352 353 354 353 350 347 345 344 338 334 337 339 342 346 348 349 348 347 346 345 345 344 344 346 349 350 346 346 345 343 347 350 349 348 349 349 347 348 348 349 349 344 342 344 345 346 348 348 348 348 348 349 349 350 350 349 350
349 350 350 351 352 352 353 354 355 356 356 356 355 355 355 354 353 351 350 351 349 350 351 352 352 352 353 354 355 354 352 351 346 343 344 344 340 337 339 342 347 349 349 350 349 347 346 346 345 344 346 348 348 348 346 347 347 348 348 348 348 349 349 348 349 350 349 350 350 347 347 347 347 348 349 350 350 350 349 349 349 351 351 350 351
350 349 350 351 352 352 353 353 355 355 356 356 355 355 355 355 354 354 354 354 353 353 353 353 354 354 356 356 355 353 351 351 350 349 349 348 347 345 345 348 351 351 350 351 351 349 348 348 346 346 347 347 346 346 346 346 346 347 346 347 348 349 349 349 350 350 350 352 351 348 348 349 349 349 349 350 349 349 349 349 350 350 351 351 352
350 350 350 350 351 352 352 354 354 354 355 356 355 354 355 355 354 355 356 356 355 355 354 354 354 354 356 355 353 352 351 350 351 351 349 347 347 348 349 352 352 351 351 350 350 350 348 347 347 347 346 346 345 346 346 346 346 346 346 347 348 349 349 349 350 351 351 352 351 349 349 349 350 350 349 349 349 349 349 349 350 351 352 352 351
351 351 351 351 351 352 352 353 353 353 354 355 355 354 354 354 355 355 355 355 355 355 354 353 353 353 354 354 352 351 350 348 349 349 348 348 348 349 351 352 352 351 351 350 349 349 348 347 347 346 346 345 345 346 346 345 345 346 346 347 348 348 348 349 351 350 350 352 352 349 349 350 349 350 349 349 348 347 349 349 350 351 351 352 351
352 351 351 351 351 352 352 353 354 353 353 354 354 354 353 354 355 355 354 354 354 354 354 353 353 352 353 353 352 351 349 347 348 348 346 348 349 350 352 352 352 351 350 350 350 349 348 347 347 346 347 346 344 346 345 344 345 346 345 346 347 347 348 348 350 350 350 351 352 350 349 350 349 349 347 347 348 347 348 349 350 350 351 353 352
352 351 350 350 351 352 353 353 353 353 353 353 353 354 353 353 355 355 354 354 353 353 353 353 352 351 351 352 352 351 349 347 347 346 347 349 350 351 352 352 352 351 350 350 350 350 348 346 346 346 346 346 345 344 345 345 345 345 345 346 346 347 347 347 348 349 350 350 351 350 349 349 349 349 347 347 347 348 349 348 349 350 350 353 352
350 351 350 350 351 352 352 352 352 353 352 352 353 353 353 353 354 354 354 354 353 354 352 351 352 351 351 351 352 352 349 347 346 346 348 350 350 352 352 352 352 351 351 350 350 350 348 347 346 346 346 345 345 343 344 345 344 344 345 345 345 346 346 346 347 348 349 349 349 350 348 348 348 349 348 348 348 348 349 348 348 349 349 351 353
350 351 350 350 351 351 351 352 352 353 352 352 352 353 353 353 354 354 354 354 354 353 352 351 351 351 351 351 352 351 351 349 348 347 349 350 350 352 352 352 352 352 351 350 350 350 349 348 347 347 347 346 345 344 345 345 345 345 344 345 345 345 345 345 346 347 348 347 348 349 348 347 347 347 347 347 348 348 349 349 349 349 349 350 353
351 350 351 351 351 350 351 352 352 353 352 352 352 353 353 353 353 354 353 354 354 353 352 351 350 351 351 350 351 351 352 350 348 349 350 350 351 351 352 353 353 353 352 351 350 350 349 349 349 349 348 347 346 346 346 345 345 345 344 345 344 344 345 345 346 345 346 346 347 348 348 349 347 346 346 346 347 347 348 349 349 349 349 349 351
351 351 352 351 351 351 351 352 351 353 353 352 352 352 353 352 352 353 353 353 353 353 352 351 351 351 350 350 351 350 352 350 347 351 351 350 351 352 353 353 353 353 353 352 351 350 350 349 349 348 348 348 347 347 347 346 344 344 344 344 344 344 344 345 345 345 345 344 346 346 346 348 347 348 347 346 345 346 347 347 349 349 349 349 349
352 352 353 352 352 352 352 352 352 353 353 352 352 352 352 352 352 352 353 353 352 352 353 352 351 349 349 350 351 351 351 349 348 352 352 350 351 352 353 353 354 354 354 353 352 350 350 350 349 348 347 347 348 347 346 345 344 343 343 343 343 344 343 344 344 344 344 344 344 345 346 346 347 348 347 347 347 346 346 346 348 348 349 350 349
352 353 353 352 352 353 352 352 352 353 352 353 353 352 352 351 351 351 352 352 352 352 352 352 351 349 349 349 350 351 351 349 350 352 352 351 351 352 353 354 355 354 355 354 352 351 350 350 349 348 348 348 347 347 346 345 344 343 343 343 343 344 343 344 344 343 344 343 344 344 345 346 346 347 346 347 347 347 347 346 347 347 349 350 348
352 353 354 353 352 353 353 353 353 353 352 353 353 351 351 350 350 351 352 352 351 352 351 351 350 349 350 350 350 351 350 348 350 352 351 351 352 353 353 355 356 355 355 354 352 351 351 351 350 349 349 349 348 346 346 346 344 343 343 343 344 344 343 344 344 344 344 343 344 344 344 345 345 346 346 346 348 348 348 345 346 347 348 350 348
352 353 354 354 353 353 354 353 353 353 353 353 352 352 351 351 350 350 351 352 351 351 351 351 350 350 350 350 350 351 349 349 350 352 352 351 352 353 352 355 356 355 356 355 353 352 351 350 351 351 349 349 349 347 347 347 345 344 344 344 344 344 344 345 345 344 345 344 345 345 345 345 345 345 346 347 348 349 349 347 347 347 347 350 349
351 352 355 355 353 353 354 354 353 353 353 353 352 351 351 351 350 350 350 351 351 351 352 351 350 350 350 351 352 351 349 350 350 351 352 352 354 354 353 355 356 356 356 354 353 353 352 351 352 352 350 349 350 348 348 347 346 345 345 344 344 345 345 345 346 345 346 345 345 345 344 344 345 346 346 346 347 347 348 349 349 349 347 348 348
350 350 354 355 354 354 354 354 354 353 353 353 353 351 350 350 350 349 350 351 351 351 352 352 350 350 350 352 353 351 349 351 351 351 353 353 355 355 355 356 356 356 356 354 354 354 355 354 353 352 352 352 352 349 349 348 347 347 346 345 344 345 345 344 345 346 346 345 345 346 344 344 346 346 346 346 346 346 346 348 350 351 349 348 348
351 351 354 356 355 355 355 355 354 353 353 353 352 350 350 350 349 349 350 351 351 351 352 351 351 351 351 352 352 350 350 351 351 352 354 356 357 356 356 357 356 356 356 355 355 355 356 357 355 354 352 352 352 350 351 349 347 348 346 346 346 345 346 345 346 346 346 346 345 346 345 345 346 347 346 345 346 346 346 349 350 350 349 350 350
353 352 354 356 357 355 355 356 355 354 353 353 352 351 350 350 349 350 350 350 351 351 351 350 350 351 351 352 351 350 351 351 351 352 355 358 358 357 357 358 357 357 357 357 357 358 358 357 356 355 353 351 351 350 350 349 348 349 348 346 347 347 345 346 346 346 346 346 345 346 345 345 345 345 345 345 346 346 345 348 349 349 349 350 351
353 354 355 356 357 356 355 356 355 354 353 352 352 352 351 349 349 350 350 349 351 351 351 350 350 351 352 353 352 350 351 351 351 353 356 358 358 358 358 358 358 359 359 358 358 359 358 357 356 355 353 352 351 350 351 349 348 349 348 347 348 346 345 345 346 346 346 346 345 345 345 345 345 345 346 346 347 347 346 346 349 350 351 351 352
353 354 355 357 357 356 356 356 355 354 353 352 352 351 350 349 349 350 350 349 350 350 351 351 350 350 352 352 351 352 352 350 351 353 356 358 359 358 358 358 359 359 360 360 360 359 358 356 355 355 354 352 350 351 352 351 349 347 348 350 349 347 347 348 347 345 346 346 346 345 345 345 346 346 345 346 347 348 348 347 348 350 351 351 351
350 353 356 357 357 357 357 357 356 354 353 352 352 351 349 350 351 351 351 350 350 351 351 352 351 351 351 350 351 352 351 349 350 351 353 358 360 359 358 358 360 359 359 360 359 357 357 356 355 355 355 353 349 350 353 352 351 349 349 350 349 349 350 348 346 346 346 346 346 346 346 346 347 347 346 346 348 348 349 348 349 351 351 350 350
350 353 355 356 357 357 357 357 356 354 353 353 353 352 351 352 352 352 351 351 351 351 352 352 351 351 351 350 350 352 351 349 349 349 352 358 360 358 359 358 359 359 358 358 357 356 356 355 356 355 354 354 351 350 352 352 353 353 351 350 349 350 351 348 347 348 347 346 347 347 346 347 347 348 348 349 349 349 349 349 349 351 351 350 350
352 352 353 355 356 357 358 357 357 355 353 353 352 352 352 352 352 350 350 350 350 350 350 350 350 351 349 348 349 351 350 349 348 349 351 356 357 358 359 358 358 359 358 358 357 355 355 354 355 355 355 356 354 352 352 352 353 354 352 351 351 351 351 350 349 349 350 349 349 347 347 348 350 350 349 350 350 349 349 349 349 351 351 351 352
352 350 351 354 355 357 358 357 357 356 354 352 351 351 351 350 350 349 349 350 350 349 349 350 350 349 348 348 349 350 350 348 346 348 351 354 356 357 358 358 357 358 358 358 356 355 354 354 355 356 356 357 357 356 354 352 352 354 353 351 351 351 351 350 349 348 350 352 350 349 349 350 352 352 351 350 350 350 350 350 349 350 351 352 353
351 349 351 353 355 358 358 357 357 356 355 352 351 351 350 350 350 350 350 350 350 351 351 351 351 350 348 349 350 350 350 348 346 348 351 353 354 355 356 358 358 358 358 358 356 355 355 356 358 358 358 358 358 359 357 355 354 353 354 354 352 352 350 350 350 349 350 352 351 350 351 351 350 351 351 350 350 350 351 351 349 349 350 352 353
351 350 352 353 355 358 359 357 356 356 355 352 351 352 351 350 350 351 350 350 350 351 352 352 352 351 350 350 350 349 349 349 349 350 352 352 352 353 355 357 358 358 357 357 356 356 357 359 360 359 359 358 358 359 359 358 356 353 353 356 356 354 352 351 352 351 350 352 351 349 350 351 349 350 351 351 351 350 350 350 349 348 350 351 352
351 351 352 353 355 358 360 358 356 355 355 352 351 352 351 351 350 351 351 351 351 351 352 352 352 352 351 351 351 350 348 348 348 350 351 352 352 353 354 356 356 355 356 356 356 357 357 358 358 358 359 359 357 358 359 357 357 356 354 355 357 356 354 354 354 353 352 352 352 350 351 352 351 352 353 352 351 350 350 349 349 350 350 352 352
351 351 352 353 355 357 359 359 356 355 354 353 352 351 352 352 351 352 352 351 351 351 352 352 351 351 351 350 351 350 349 347 346 348 350 351 351 353 353 353 353 352 354 356 356 356 356 355 355 357 359 360 358 358 358 356 356 357 355 354 356 355 353 355 354 354 354 353 352 352 352 353 351 353 354 352 351 351 350 349 350 351 351 351 352
Wind_Speed
15 15 15 15 15 14 12 12 12 13 13 14 14 13 13 13 13 14 15 16 16 15 15 15 15 15 15 15 15 15 15 15 15 15 14 14 14 14 14 15 15 15 15 15 15 15 14 14 14 13 13 13 13 14 14 14 14 13 13 12 12 11 11 11 11 11 11 11 12 12 12 12 12 12 12 11 10 10 10 9 9 9 8 9 11
16 16 15 15 16 14 12 11 12 12 12 13 13 13 13 14 14 14 14 15 15 14 15 15 15 15 14 15 15 15 15 15 15 14 14 13 13 14 14 15 15 15 15 15 15 15 15 14 14 14 14 14 15 15 15 15 15 13 12 12 11 11 10 10 10 10 10 10 11 11 11 11 11 11 11 10 10 9 9 8 7 7 8 9 11
17 16 15 15 15 13 12 12 11 11 12 13 13 13 13 14 14 14 15 15 14 14 15 15 15 15 14 15 15 15 15 15 15 14 14 13 13 14 14 15 15 15 15 15 15 14 14 13 13 13 13 13 14 14 15 14 14 13 12 12 11 11 10 9 9 9 9 9 10 10 10 10 11 10 10 9 9 8 8 8 7 7 8 9 12
17 15 15 16 15 13 13 12 11 11 12 13 12 12 13 14 14 14 14 14 14 14 15 15 15 15 14 15 15 16 15 15 15 14 14 13 13 13 13 14 14 14 14 14 14 13 13 13 12 12 12 12 13 13 13 13 12 12 11 11 11 10 10 9 9 9 9 9 9 9 10 11 11 10 9 9 8 8 7 7 7 8 9 8 12
16 14 15 15 14 14 14 13 12 12 13 13 13 13 13 14 14 14 14 14 14 14 14 14 14 14 15 14 14 15 15 15 15 15 14 13 13 12 12 12 13 13 13 13 13 13 13 13 12 12 12 12 13 13 13 13 12 12 11 11 10 10 10 10 9 9 9 9 10 8 8 11 11 10 9 8 8 8 7 7 7 7 9 9 11
15 14 14 14 13 13 14 13 12 12 13 13 13 13 13 13 14 14 14 14 14 13 13 13 13 13 15 14 14 14 15 15 15 15 14 13 13 12 12 12 12 12 12 12 12 12 12 12 12 12 12 12 12 11 11 11 12 11 11 10 9 9 8 9 9 9 10 10 9 7 7 9 10 10 9 8 7 7 7 7 7 7 8 9 11
15 14 13 13 13 13 14 14 13 12 12 12 12 12 12 13 13 14 14 14 13 12 12 12 12 13 14 13 13 14 14 15 15 14 14 13 13 13 13 12 12 12 12 11 11 11 11 11 11 12 12 11 11 10 10 10 11 11 10 10 8 7 6 7 7 8 10 8 5 6 7 7 8 9 9 7 7 7 7 6 7 7 7 8 10
14 13 12 12 12 14 14 14 13 11 11 12 12 11 11 12 13 13 14 13 13 12 11 12 12 12 13 13 13 13 14 14 14 14 14 14 13 13 13 13 12 12 12 11 11 11 10 10 11 11 11 10 9 9 9 9 10 9 9 9 7 6 5 5 6 8 9 6 4 6 6 7 8 9 8 7 7 6 6 6 6 6 7 7 9
14 13 12 11 12 14 14 13 12 11 11 11 11 10 10 11 13 13 13 13 13 12 11 11 12 12 12 13 13 13 13 14 14 14 14 14 13 13 13 12 11 11 12 12 11 11 10 10 11 10 10 9 8 8 8 8 8 7 7 6 5 4 3 3 5 7 6 5 5 6 6 6 7 8 8 7 6 6 5 5 5 5 6 7 8
14 13 12 12 13 14 12 11 11 11 11 11 11 10 10 10 12 12 12 13 12 11 11 11 11 11 12 12 12 12 12 13 13 13 13 13 12 12 12 12 11 12 12 12 11 11 10 10 10 9 8 7 7 7 8 8 7 7 7 6 4 2 1 2 4 5 4 5 5 5 6 7 7 8 8 7 6 5 5 4 5 4 6 6 5
15 14 13 13 14 13 12 11 10 11 11 11 10 10 10 9 10 11 12 13 11 11 11 10 10 11 12 11 11 12 11 12 12 13 13 12 12 11 11 11 12 12 12 12 11 10 10 9 8 7 7 6 6 7 7 7 7 7 7 7 6 3 2 1 3 4 4 5 5 5 6 7 7 8 8 7 6 5 5 4 5 4 3 3 3
15 14 13 14 14 14 13 12 11 11 11 11 10 10 10 9 9 10 11 12 12 11 11 10 9 10 11 11 11 11 11 11 11 12 12 12 11 10 10 11 12 12 11 11 10 10 9 8 7 6 6 5 6 7 6 6 6 5 6 7 7 5 3 2 2 2 4 5 4 5 5 5 6 7 7 6 5 4 4 4 4 3 2 1 1
15 14 14 15 14 14 13 11 11 10 11 10 10 10 10 8 8 10 11 11 12 11 11 10 10 10 10 11 11 11 11 11 10 11 11 11 10 10 9 10 11 11 11 11 10 9 8 7 6 5 4 4 5 5 6 6 6 5 5 6 7 6 4 3 3 2 4 5 5 4 4 5 5 4 6 5 3 3 2 2 2 2 2 2 2
14 13 14 14 14 14 12 11 11 11 11 10 10 10 9 9 8 10 11 11 11 11 11 10 10 11 10 10 11 10 10 10 10 10 11 10 9 9 9 9 10 10 10 10 9 8 7 7 6 5 4 4 4 4 5 5 6 6 6 6 7 6 4 2 2 1 3 4 5 4 4 5 2 3 6 4 3 3 2 2 1 1 1 3 3
13 13 13 13 14 14 13 12 11 11 10 10 10 10 10 9 8 10 10 10 11 10 10 10 11 12 11 11 10 10 10 10 10 10 9 9 8 8 8 8 9 9 9 8 8 7 7 6 6 5 4 4 4 4 4 4 5 6 6 7 7 7 4 1 1 1 2 3 4 4 5 4 2 3 5 4 3 4 3 2 2 2 2 3 3
12 12 12 12 13 13 13 12 12 11 10 10 10 10 10 9 9 10 10 11 10 10 11 11 12 11 12 11 10 10 10 10 10 9 8 8 7 7 7 8 8 8 8 7 7 7 7 6 6 5 4 4 3 3 3 4 5 6 7 8 8 7 3 1 1 1 2 3 4 4 5 3 2 4 5 3 3 3 3 3 3 3 4 4 5
12 12 12 12 12 12 11 12 12 11 11 10 10 10 10 9 9 10 11 12 10 11 11 11 12 11 11 11 11 10 10 10 10 7 6 7 7 7 8 8 8 7 7 7 7 7 7 7 6 5 4 3 2 2 3 4 5 7 8 8 9 7 2 2 1 1 1 3 4 4 5 3 3 5 4 3 2 2 3 4 4 4 5 5 6
11 10 11 12 11 11 10 10 11 11 11 10 9 10 10 9 9 10 11 13 12 12 11 10 10 11 10 9 10 10 9 11 9 6 5 6 7 7 8 8 7 7 6 7 7 7 7 6 5 4 3 1 1 2 3 5 6 8 8 8 8 5 3 3 1 1 2 2 3 4 3 3 4 5 3 2 2 3 4 5 5 6 5 5 6
11 10 10 11 10 10 10 9 9 10 11 10 8 8 9 9 10 10 10 11 12 11 11 10 9 10 9 9 9 8 9 11 8 6 5 5 6 6 7 7 7 7 7 7 7 7 6 5 4 3 1 1 2 3 5 7 8 8 8 7 4 4 5 4 2 2 3 2 2 3 1 4 4 3 3 3 3 4 5 6 6 6 6 6 6
10 10 10 10 10 10 10 9 9 9 10 10 9 7 7 9 10 10 9 9 10 11 10 9 8 8 8 8 8 7 8 9 6 5 4 4 5 6 7 7 7 7 7 7 6 6 4 3 2 1 1 2 4 6 7 7 7 7 6 4 5 6 5 3 2 3 3 2 3 2 2 3 3 2 3 4 3 4 5 5 5 5 6 7 7
9 9 9 10 10 10 10 9 9 9 9 10 10 8 6 8 9 9 10 10 9 10 10 10 9 8 8 7 7 7 6 7 7 5 4 3 4 6 7 7 8 8 7 7 6 5 3 2 1 2 2 3 5 7 9 8 5 4 4 7 8 6 3 3 4 4 4 4 4 1 2 3 2 2 3 3 3 3 3 4 5 6 7 7 8
10 10 9 10 10 10 10 9 9 10 9 8 10 10 8 7 6 7 9 9 8 9 9 10 10 9 8 7 7 7 7 7 6 5 4 4 4 6 7 8 8 8 7 6 5 4 2 2 2 2 3 4 6 7 8 8 6 6 8 9 7 5 4 5 5 6 5 5 3 1 3 4 3 4 4 3 3 2 3 4 5 6 7 8 8
11 10 10 11 10 10 10 9 10 10 9 8 9 10 11 9 7 7 7 6 7 7 8 8 8 8 8 8 9 9 8 7 6 5 6 5 5 7 8 8 8 7 6 6 5 3 3 3 3 3 4 5 6 6 7 6 6 7 8 7 5 5 5 5 6 6 5 5 3 2 6 6 5 6 4 3 3 3 3 4 5 6 7 8 8
11 11 10 11 10 10 10 9 10 10 9 8 8 8 10 11 10 10 9 8 8 8 9 9 9 9 9 9 9 9 8 6 6 6 6 5 5 6 8 8 6 5 5 5 4 4 4 4 4 4 4 5 4 5 6 5 5 6 6 6 6 5 5 5 6 6 5 4 1 2 6 6 6 6 5 3 2 3 3 4 4 6 6 7 8
11 11 11 11 11 10 10 10 9 10 9 8 7 7 8 8 8 9 9 9 9 9 10 9 9 9 8 7 7 7 6 6 5 5 4 4 5 5 6 5 4 3 4 4 3 4 4 3 3 3 3 4 4 4 5 5 5 5 6 6 6 5 5 5 5 5 4 2 1 1 3 4 4 4 3 2 3 3 4 4 4 5 6 7 8
11 11 11 12 12 11 10 10 10 10 9 8 7 6 6 6 6 7 7 7 7 7 7 7 7 6 5 4 5 5 5 5 4 4 4 5 5 6 5 4 3 3 3 3 3 3 3 3 3 3 3 4 5 4 4 4 4 5 6 6 5 4 4 4 4 4 3 2 2 1 2 3 2 3 3 2 3 4 5 5 5 6 5 6 7
11 11 11 11 12 12 11 10 10 10 9 8 6 6 6 5 5 5 6 5 5 5 5 5 5 4 3 3 3 4 5 5 4 4 4 5 6 6 5 4 3 3 3 3 4 3 3 3 3 3 2 3 5 4 4 4 3 4 5 5 4 4 3 2 3 3 2 2 4 3 3 4 4 4 4 4 3 4 5 6 6 6 6 6 6
11 11 11 11 11 12 12 11 9 9 9 8 7 6 5 5 5 5 5 5 4 4 4 4 4 3 2 2 2 3 4 4 4 4 4 5 5 5 4 3 3 3 3 3 4 3 4 4 3 4 2 2 4 4 4 4 2 3 3 3 3 2 2 2 1 1 1 2 4 5 5 5 6 6 6 5 5 5 5 6 6 6 6 6 7
11 11 11 10 11 12 12 11 10 9 9 8 7 6 5 5 5 5 5 4 4 3 3 3 3 3 2 2 2 3 3 4 4 4 4 5 5 4 3 3 3 3 3 3 4 3 3 4 3 3 3 2 3 3 2 3 2 2 2 1 1 1 1 1 1 1 1 1 3 6 7 7 7 8 7 7 6 6 6 6 6 6 7 7 7
11 11 11 10 11 11 12 12 11 10 9 8 8 7 6 6 5 5 4 4 4 3 3 3 3 3 3 3 2 2 3 3 3 4 4 5 4 3 2 2 3 2 2 3 3 3 3 3 3 3 3 1 2 3 1 0 1 1 1 1 1 1 0 1 2 1 1 0 2 6 8 9 9 10 10 9 9 9 9 8 7 7 7 7 6
11 11 11 10 11 12 12 12 11 10 10 9 8 7 7 6 6 5 5 4 4 3 3 3 3 3 4 4 3 2 2 2 3 3 4 5 4 3 2 2 2 2 2 3 3 3 3 3 3 2 2 1 2 2 1 1 2 2 2 2 2 2 2 3 3 3 2 1 1 4 7 10 11 11 12 12 11 11 10 10 9 9 9 8 7
10 11 11 10 11 12 11 12 12 11 11 9 9 8 7 7 6 5 5 5 5 4 3 3 3 3 4 4 3 3 2 2 2 3 4 4 4 3 2 1 1 2 2 2 3 3 2 2 2 2 2 1 1 2 2 2 2 3 3 3 3 3 3 4 5 4 3 2 2 4 5 8 10 12 13 13 13 12 12 12 10 10 10 10 8
9 10 10 11 11 11 11 11 11 12 11 10 9 9 8 7 6 6 6 5 5 5 4 4 4 4 5 4 4 4 3 2 3 3 3 4 4 3 2 2 1 1 1 2 2 1 1 1 1 1 1 1 1 2 3 3 2 3 4 4 3 3 3 4 5 5 4 4 4 4 4 6 7 10 12 13 13 14 14 14 13 11 11 11 10
8 9 10 11 10 10 10 11 11 12 12 10 9 9 8 7 7 6 6 6 6 5 4 4 4 5 5 5 5 4 3 3 3 4 3 4 4 3 2 1 1 1 1 1 1 1 1 2 2 1 1 1 2 2 4 4 4 3 3 4 4 4 4 5 6 5 5 5 5 5 5 6 6 8 10 11 12 14 14 15 14 13 12 12 11
8 8 10 10 10 10 10 10 11 13 12 11 9 9 8 8 8 7 7 7 6 6 5 4 4 5 5 5 6 5 4 5 5 4 4 4 4 4 3 1 1 0 0 1 1 2 2 2 3 3 2 2 3 3 3 4 4 4 3 4 4 4 5 5 6 6 5 5 5 5 6 6 7 7 8 9 10 12 14 15 15 15 13 12 12
8 8 9 10 10 10 10 10 11 12 12 11 10 9 9 8 8 7 7 7 7 6 6 5 5 6 6 6 7 6 6 6 6 5 4 4 4 4 3 2 1 1 0 0 1 2 2 2 2 4 4 4 5 4 3 3 5 4 2 3 2 3 5 5 6 7 6 5 6 6 7 7 7 7 8 8 8 10 13 14 14 15 14 12 12
9 9 10 11 11 11 10 10 11 12 12 11 10 9 9 9 8 8 7 7 8 7 7 6 6 7 7 7 7 7 7 7 7 6 5 5 4 3 3 2 1 1 0 1 2 2 2 2 2 3 4 5 6 6 5 5 6 5 4 4 3 3 5 5 7 8 6 6 7 7 7 8 8 7 7 7 7 7 10 13 14 14 15 13 12
10 10 10 11 11 11 11 9 10 11 11 11 10 10 10 9 8 8 8 8 8 8 7 7 7 8 8 8 8 7 8 8 8 6 5 5 4 3 2 2 2 1 0 1 2 2 3 3 2 2 2 5 6 7 7 6 7 7 6 6 4 4 6 6 6 7 7 7 6 6 6 8 9 7 7 7 7 7 8 11 12 12 13 13 12
11 10 10 11 11 11 10 10 10 10 10 10 10 10 9 9 9 9 8 8 9 8 8 7 8 8 8 8 8 8 8 9 8 7 6 5 4 3 2 2 2 1 1 2 2 1 2 3 3 2 2 5 5 6 7 6 8 7 7 7 6 5 6 6 7 6 6 7 6 6 6 8 8 7 7 7 8 9 8 8 9 9 10 12 12
11 10 11 11 11 11 11 11 11 11 11 10 10 10 9 10 10 9 9 9 10 9 9 8 8 8 8 8 9 9 9 9 8 7 6 5 4 3 2 2 1 1 1 2 2 1 2 2 2 2 3 6 5 5 5 6 8 6 6 7 5 4 4 4 6 5 4 5 5 5 5 6 7 6 6 6 7 7 7 7 7 8 8 10 12
10 10 12 12 12 12 12 12 11 11 11 11 11 11 10 10 11 10 10 10 10 10 10 9 9 9 9 9 9 9 10 10 9 7 6 5 4 3 2 1 1 1 1 1 2 2 2 3 2 2 4 6 6 5 4 5 7 5 5 6 5 3 2 3 4 4 4 4 4 4 4 6 6 4 5 5 5 6 6 6 6 7 7 8 9
10 11 12 12 12 13 12 12 12 12 12 11 11 11 11 12 12 11 10 10 11 11 10 10 10 9 9 10 10 10 10 10 9 7 6 5 4 3 2 1 0 0 1 2 2 2 3 4 4 4 5 6 6 5 4 6 7 5 5 6 5 2 1 4 4 4 4 5 5 4 4 6 5 5 6 5 5 5 6 6 5 5 5 6 7
8 9 11 11 12 12 12 12 12 12 12 12 12 12 13 13 11 10 10 10 10 11 10 10 10 10 10 10 10 10 11 11 9 8 6 5 4 3 2 1 0 1 1 2 2 3 3 4 4 5 5 6 6 4 3 5 7 7 5 4 4 2 1 2 4 3 4 5 5 5 6 7 6 4 6 8 7 4 4 6 4 4 5 6 6
5 5 8 11 11 12 12 12 12 12 12 12 12 11 12 12 10 9 9 8 9 10 9 9 10 10 10 11 11 11 11 11 10 9 7 5 4 2 2 1 0 1 2 2 3 3 3 4 4 4 5 7 7 4 3 4 6 6 5 4 4 3 1 3 5 4 6 5 5 7 8 9 10 6 4 6 8 4 4 5 4 4 5 5 6
7 5 8 9 10 11 12 12 12 11 10 12 14 12 11 11 11 10 10 10 10 11 11 10 11 11 11 12 12 11 11 11 10 9 8 5 4 3 2 1 1 1 2 3 3 4 4 4 4 4 5 6 6 6 4 4 4 4 5 5 4 3 2 6 7 4 6 7 8 11 9 8 11 9 6 4 6 5 3 4 3 3 4 5 6
7 6 7 8 8 11 12 12 11 10 10 11 14 14 12 13 13 12 13 12 12 12 12 12 12 12 12 12 12 12 12 12 10 10 8 6 5 4 2 2 2 2 3 4 4 4 4 4 3 4 5 4 5 6 5 4 4 3 4 4 4 5 5 6 6 3 4 6 9 10 7 6 7 8 8 4 4 5 4 5 4 3 3 5 5
7 6 7 7 8 10 12 12 11 10 10 11 14 15 14 15 14 13 12 12 12 12 12 11 11 12 12 12 11 11 12 12 11 10 9 8 6 5 4 4 3 3 3 4 5 5 4 4 4 4 4 3 4 5 6 5 4 4 5 5 5 5 6 6 5 4 4 4 6 6 5 6 4 4 7 6 4 5 4 5 5 2 3 4 3
7 7 8 8 9 10 12 12 10 10 10 11 13 14 13 13 13 12 11 12 11 11 12 11 10 11 12 12 11 11 12 12 11 10 10 9 7 6 6 5 5 4 4 5 5 5 4 4 3 4 4 4 4 5 6 6 6 5 4 6 6 5 6 5 5 6 5 4 5 5 4 6 5 4 6 7 5 5 4 4 5 3 2 3 3
7 8 8 7 9 11 12 13 11 10 10 11 12 13 12 12 12 12 11 12 11 11 12 11 11 12 12 12 11 11 12 12 11 10 10 9 8 8 7 7 6 6 6 6 5 5 5 4 4 4 4 4 4 4 5 5 6 6 5 5 7 7 6 5 5 6 6 4 5 5 6 7 6 5 6 7 6 5 4 3 3 2 1 2 3
8 8 8 8 10 11 12 13 12 10 11 11 12 12 12 12 13 12 12 12 12 11 12 12 12 12 12 12 11 11 11 12 12 11 10 9 9 9 9 8 8 7 7 6 6 6 6 6 5 5 4 5 5 5 5 5 5 6 6 5 6 7 6 5 5 6 6 6 5 6 8 8 6 6 6 7 8 6 4 3 2 1 0 1 2
9 9 9 8 10 11 12 13 12 11 11 12 12 13 12 12 12 12 13 13 12 12 12 12 13 13 13 12 12 11 11 11 11 11 11 11 10 10 10 9 8 8 7 7 7 7 7 6 6 4 4 5 5 5 5 5 5 5 7 6 6 6 5 5 5 6 6 6 6 6 8 9 8 7 7 7 7 6 4 3 2 2 1 1 0
Wind_Direction
146 147 148 149 140 138 136 133 130 127 122 119 119 118 119 115 112 112 116 120 120 116 115 114 112 111 111 110 108 107 106 107 106 106 104 103 103 104 105 104 103 101 100 99 97 92 90 92 93 91 91 93 92 91 90 92 93 93 95 96 96 96 98 99 100 102 104 107 114 118 115 114 113 115 117 119 121 123 125 125 125 122 131 134 122
147 147 147 149 141 139 139 137 134 131 125 121 121 120 120 117 118 120 121 123 122 117 116 116 114 114 112 110 108 107 107 108 108 106 105 104 102 102 103 104 102 100 100 99 98 94 90 90 89 88 87 88 88 89 89 89 90 92 97 100 99 98 98 101 103 104 106 108 114 118 118 115 113 113 114 116 118 120 122 123 125 127 137 132 118
145 146 147 152 144 142 142 140 138 134 124 121 121 121 120 118 119 122 122 122 121 118 118 119 117 116 114 111 110 108 108 109 109 108 106 104 102 101 100 100 99 98 98 98 98 96 94 92 89 89 88 87 87 88 89 89 90 91 92 94 95 97 99 102 107 109 110 114 119 119 119 118 117 114 112 113 114 118 119 122 123 125 128 124 115
144 144 148 153 147 146 147 144 142 134 124 123 122 119 120 119 120 121 122 122 121 121 122 122 120 119 115 113 111 109 108 108 108 109 107 105 103 101 100 97 97 97 98 99 99 98 97 94 90 88 88 88 87 87 89 91 92 92 89 86 85 88 93 97 103 110 115 120 122 125 125 122 120 118 115 114 115 117 118 122 118 115 114 114 116
141 144 149 152 150 151 151 148 144 134 125 124 120 117 119 120 122 122 122 123 124 125 125 124 123 121 117 116 113 110 109 108 107 106 105 104 103 101 99 96 95 96 97 98 98 98 97 94 91 88 89 90 88 88 89 89 89 88 88 87 85 82 84 88 91 97 111 118 116 123 131 126 122 120 118 116 117 119 120 121 113 111 110 108 115
140 145 151 149 150 153 152 148 142 131 125 125 118 117 121 123 125 123 124 124 124 125 125 124 123 121 121 119 114 112 110 109 107 105 104 102 101 100 98 96 95 96 96 97 97 95 93 93 92 92 93 91 88 87 87 86 84 82 84 87 89 86 81 82 85 89 98 103 105 118 127 124 120 120 121 118 118 118 119 118 114 112 110 111 114
139 144 150 147 150 153 150 147 140 131 128 127 121 122 126 127 129 126 126 125 125 126 124 122 121 121 122 120 116 114 112 110 108 106 105 102 100 98 96 95 94 94 96 97 96 93 91 92 92 93 92 90 88 87 87 85 82 80 80 83 85 88 86 82 80 84 92 93 103 117 120 122 120 119 122 121 120 118 114 116 117 117 115 116 117
139 143 147 146 149 150 147 143 137 135 134 130 126 127 128 128 127 125 127 127 127 127 125 123 123 121 120 119 117 115 113 110 108 107 106 104 100 97 94 92 91 90 91 92 92 92 92 92 92 91 90 89 88 89 88 85 82 78 76 75 73 77 86 91 80 76 85 94 110 112 112 119 118 117 121 121 118 114 112 114 115 120 122 116 120
137 140 144 144 146 146 143 139 137 140 138 133 132 129 126 125 126 126 129 132 130 129 127 125 124 123 120 120 119 117 114 111 108 107 106 105 100 96 94 93 92 92 89 88 88 91 93 93 92 90 89 86 85 85 79 76 72 64 59 60 59 63 71 95 88 78 84 98 106 107 113 114 111 115 120 118 114 112 108 107 111 113 118 116 121
136 139 142 142 146 144 140 140 142 144 139 137 135 133 130 126 129 129 131 133 130 130 129 126 126 125 122 120 120 119 115 112 110 108 106 103 100 98 97 97 98 96 92 90 89 89 92 95 94 93 90 83 76 73 68 62 52 44 43 43 38 40 53 99 99 93 97 103 104 106 119 117 104 112 118 115 110 109 101 101 118 115 112 116 122
138 140 140 142 145 142 140 143 145 145 143 141 137 136 134 130 132 130 131 133 131 130 127 125 125 124 123 123 121 121 117 113 111 108 106 103 102 100 101 103 101 98 93 91 90 88 91 94 94 93 89 79 69 63 59 50 38 36 37 31 23 15 0 52 89 96 99 101 109 110 117 116 102 110 113 106 102 98 96 95 108 108 106 123 138
140 138 139 145 146 142 143 144 145 146 145 143 140 139 137 133 134 133 131 134 136 134 130 129 127 123 124 125 124 124 120 113 111 109 107 105 103 101 101 103 103 99 92 90 91 91 92 93 93 89 83 74 66 60 52 44 36 36 30 18 13 6 350 25 67 83 97 99 105 105 111 110 102 111 108 101 102 102 109 110 109 113 124 154 187
140 138 140 144 146 144 145 145 146 147 146 145 143 142 141 136 135 135 134 137 139 139 137 134 131 128 127 128 128 128 121 113 111 109 107 105 104 104 101 100 102 100 94 92 90 91 93 94 95 88 81 71 63 55 40 30 24 24 18 8 3 356 347 27 59 67 86 95 99 97 103 102 103 112 108 105 102 99 106 112 115 128 162 198 218
142 140 141 144 147 146 146 147 146 147 148 147 144 145 144 141 143 139 136 139 140 141 139 134 133 134 135 134 132 131 123 114 110 107 105 106 106 107 106 105 105 102 96 92 88 87 89 92 92 85 75 67 57 44 26 11 5 3 1 359 357 357 354 16 40 78 83 88 95 99 107 102 118 115 98 95 80 66 56 64 64 24 225 226 232
144 141 142 144 147 147 145 146 147 148 148 148 148 148 148 148 151 144 136 139 141 139 137 136 138 138 139 138 138 135 125 115 110 106 105 106 107 108 109 111 108 102 95 92 89 87 88 87 85 80 69 59 46 29 15 359 351 345 344 344 347 358 4 1 351 87 88 89 93 97 107 110 184 130 97 91 73 49 37 26 4 341 304 281 266
146 144 144 145 147 148 147 147 148 148 147 148 149 149 154 155 154 150 141 140 143 141 139 139 138 139 140 142 142 133 124 116 109 108 107 107 109 110 111 111 106 100 96 93 91 90 91 90 84 78 68 56 41 23 6 350 337 330 332 331 336 348 18 89 348 74 84 92 96 94 101 109 192 133 106 96 79 47 25 358 344 327 304 292 280
149 148 146 145 145 146 147 150 151 150 148 148 152 157 160 157 153 156 151 145 145 145 143 140 138 141 145 147 138 125 125 115 105 107 109 111 113 115 114 110 107 100 95 92 90 90 90 91 87 82 75 62 35 9 343 328 322 324 326 326 333 341 39 104 8 60 85 88 93 96 102 124 164 130 106 80 72 36 0 347 341 324 313 302 289
151 152 147 143 143 145 147 153 154 151 149 148 160 168 158 151 152 155 155 148 146 147 143 143 143 141 147 144 129 127 128 113 109 117 110 112 111 114 116 112 109 101 96 93 90 89 88 87 86 86 83 61 4 335 322 323 323 326 329 329 334 345 75 101 32 43 72 73 88 96 115 181 168 132 101 59 34 8 354 350 347 335 328 320 308
153 152 147 142 144 147 149 155 155 153 152 149 168 180 157 151 151 151 154 146 146 147 146 152 147 139 141 133 127 136 125 109 116 128 116 113 106 108 115 112 107 102 99 94 87 81 80 80 81 88 75 7 334 333 331 332 332 333 336 337 353 42 65 70 43 48 60 57 90 91 174 198 162 132 96 49 13 3 353 349 345 341 338 333 325
154 153 152 150 149 151 155 159 158 159 159 152 165 188 167 155 152 150 152 149 150 146 150 159 143 134 135 133 141 134 115 117 133 136 123 115 116 118 117 113 106 104 99 88 77 68 64 62 64 55 16 349 349 357 354 343 340 345 349 14 59 65 53 54 60 63 60 60 85 79 230 184 148 137 85 47 16 7 350 344 342 340 340 335 329
158 161 162 159 157 158 160 162 164 164 165 153 154 175 181 161 151 148 150 155 157 148 158 163 147 149 147 141 141 123 129 154 144 127 115 100 122 126 119 112 104 100 90 78 64 53 46 34 15 5 357 353 11 25 20 8 3 12 40 68 69 61 52 62 68 67 64 63 68 39 210 156 145 123 79 38 20 18 349 341 340 338 338 334 331
163 168 169 170 168 167 166 164 168 167 168 161 153 163 175 170 155 150 152 157 156 149 163 162 152 159 154 148 145 144 170 168 137 129 130 117 125 124 116 107 100 93 82 71 57 46 31 14 355 355 1 15 38 60 50 29 35 60 68 69 64 65 69 67 70 70 65 64 58 118 140 124 115 95 70 29 10 3 346 340 336 334 335 335 332
168 171 172 177 176 175 175 169 169 170 171 171 163 161 165 167 164 164 160 160 156 147 156 160 159 163 161 167 169 174 176 154 136 135 129 120 119 118 112 105 97 89 78 62 46 37 16 7 357 6 27 49 65 86 85 66 59 65 65 65 69 78 76 74 76 71 69 71 63 119 114 102 96 84 65 38 8 344 343 336 329 331 334 336 333
172 172 172 178 180 180 180 176 170 170 173 175 173 166 165 167 168 167 164 168 167 157 163 169 171 171 174 180 177 173 164 145 127 113 108 110 114 114 107 102 95 82 73 58 39 31 23 16 13 34 60 78 90 91 92 92 84 75 70 72 75 78 78 76 77 73 71 70 63 122 103 92 89 82 73 52 10 347 342 334 326 327 332 338 334
173 172 172 178 182 181 180 181 176 173 175 178 180 173 168 171 171 168 166 172 172 168 172 172 172 174 178 181 170 157 150 140 121 108 115 121 124 125 118 112 109 85 68 65 56 43 50 58 51 74 101 106 103 93 92 90 83 79 71 71 70 72 72 71 77 75 69 49 334 111 86 78 76 69 65 40 3 343 327 325 325 322 332 339 332
173 175 175 177 182 183 181 181 181 180 178 179 183 179 172 175 178 171 172 176 173 174 173 166 166 171 173 170 160 147 142 136 124 120 121 123 132 138 135 130 125 100 75 73 73 64 76 91 94 106 119 117 105 96 92 80 81 85 75 72 70 70 66 66 78 73 59 18 323 330 25 22 33 28 9 355 355 342 325 320 318 319 324 327 325
176 178 176 177 181 183 182 181 182 183 183 182 182 183 181 180 182 176 177 180 177 179 170 161 160 164 168 160 150 143 143 138 127 122 118 129 141 141 139 137 126 105 90 83 78 77 86 93 100 104 113 119 114 115 102 80 72 88 85 81 75 74 67 59 77 70 51 7 323 315 332 332 332 339 338 337 344 341 324 316 314 320 317 308 314
176 180 178 177 183 183 183 183 182 185 186 187 186 188 187 182 183 180 183 188 185 179 164 156 154 159 170 154 148 149 147 142 132 127 126 135 144 145 145 142 121 102 100 90 79 80 92 96 98 109 117 116 119 122 117 115 114 87 84 87 84 84 75 45 57 64 40 11 331 319 318 316 318 323 329 330 335 337 321 310 308 315 313 304 305
178 181 182 180 183 182 183 186 183 186 187 190 192 192 190 187 188 185 189 199 199 180 158 157 157 158 168 171 160 156 155 149 136 127 132 140 148 150 143 132 113 101 105 91 81 83 95 101 99 111 116 119 116 104 108 128 130 93 73 76 98 106 86 33 0 355 350 11 327 316 316 311 306 313 322 323 321 322 316 307 303 305 304 303 306
179 181 183 183 182 182 185 188 186 185 188 191 194 194 192 192 195 192 191 198 202 186 169 173 168 159 170 188 171 159 166 152 132 125 138 146 150 149 137 131 117 103 99 88 84 85 88 97 91 95 97 87 96 89 73 70 55 53 16 316 311 312 1 330 294 273 241 151 310 310 319 315 303 301 306 313 314 311 309 307 304 302 300 304 308
177 179 181 183 182 184 187 188 188 186 188 192 193 196 195 196 197 195 195 197 201 192 185 182 167 159 169 180 173 168 171 143 125 133 150 155 154 154 143 131 111 93 82 81 80 78 68 71 60 51 61 28 49 62 351 346 329 305 296 288 299 303 317 309 288 277 256 173 316 303 312 314 311 306 302 303 304 303 304 304 304 303 303 305 308
178 180 179 182 184 187 188 187 189 187 188 192 193 195 197 200 199 200 202 200 202 197 195 186 167 167 169 173 178 180 169 132 129 142 159 162 161 163 156 143 103 85 62 66 66 67 66 62 53 30 36 6 7 26 337 315 305 308 296 288 296 296 304 305 297 299 295 283 275 280 294 302 310 311 306 301 297 296 298 300 300 301 303 306 312
180 182 178 182 185 186 188 188 190 189 190 192 193 197 199 199 200 204 205 201 205 202 198 189 174 179 175 173 179 178 161 136 147 156 169 173 167 172 168 152 103 71 50 54 49 55 42 34 45 39 45 332 330 4 331 315 329 327 305 301 303 301 306 300 294 294 292 287 274 277 285 285 294 301 305 306 301 295 292 294 295 297 299 304 314
179 184 181 184 184 182 187 188 191 191 192 194 193 196 199 200 201 204 206 204 205 202 198 189 181 184 181 176 174 173 163 154 170 173 177 186 176 175 180 149 109 83 48 37 357 10 9 358 358 3 5 304 328 356 333 334 343 333 326 320 312 314 313 305 304 297 288 287 283 286 286 285 286 286 294 301 304 300 292 288 290 293 297 301 312
182 189 187 185 183 180 185 188 191 192 192 193 191 195 200 201 202 204 208 207 204 203 197 188 187 187 180 179 175 173 170 165 177 186 187 195 187 181 181 136 113 151 27 29 322 331 331 339 353 339 321 321 331 329 320 336 331 326 341 320 312 323 314 310 312 301 286 278 279 283 283 286 290 290 293 295 302 302 294 287 285 290 294 298 307
189 195 189 187 186 181 184 188 189 190 190 190 190 194 199 202 205 206 208 207 204 205 200 190 190 190 185 184 180 175 172 171 181 191 194 196 194 185 173 146 136 198 302 329 287 302 306 314 344 328 326 330 316 305 315 328 310 307 319 295 303 326 311 312 310 304 302 299 294 288 284 281 278 282 287 287 290 293 296 294 286 287 291 294 302
195 200 192 190 191 183 186 191 187 186 186 187 190 192 195 199 203 206 207 205 205 205 200 193 191 193 190 184 181 177 173 177 184 188 195 200 198 192 177 165 170 200 273 275 270 288 296 295 331 331 327 320 308 309 321 323 309 309 316 302 314 325 308 313 312 308 306 296 291 295 302 299 287 278 275 280 279 282 298 301 295 292 291 289 296
196 202 195 192 195 187 185 189 184 184 184 184 189 192 193 195 200 206 206 205 207 205 199 195 193 193 190 184 179 178 177 182 185 184 196 202 195 197 183 166 182 202 248 263 265 296 302 305 343 12 331 310 310 317 322 323 314 315 323 318 323 318 307 312 307 300 296 290 288 298 306 299 295 289 281 284 284 283 289 294 300 302 297 294 295
195 201 194 191 195 188 182 182 181 184 186 185 188 193 193 192 199 204 203 206 207 203 201 196 195 192 187 183 178 177 180 184 185 184 193 201 196 194 186 178 198 205 242 262 262 286 315 332 357 24 320 299 304 311 314 314 308 313 322 320 319 314 317 321 310 300 294 293 293 292 287 284 288 291 285 274 270 274 267 265 286 295 302 308 302
198 195 188 189 189 185 178 176 180 185 188 188 191 195 192 192 200 202 200 204 201 200 202 199 196 193 186 183 180 180 182 185 186 188 194 197 195 189 184 192 211 229 248 269 282 307 342 346 354 358 303 298 298 296 306 314 309 312 316 312 310 315 330 319 306 311 309 303 302 301 300 294 291 291 292 284 274 276 263 248 272 286 297 307 301
196 191 188 189 186 183 178 174 177 184 188 191 195 196 192 192 200 203 200 197 196 197 198 198 198 192 186 182 180 182 184 187 187 190 196 195 189 182 181 187 213 250 284 299 310 326 329 318 321 309 292 301 304 300 324 323 302 303 318 316 315 339 356 304 310 348 349 338 319 310 316 307 300 295 290 291 294 293 278 257 263 278 286 297 300
193 191 190 188 186 184 180 176 176 181 190 196 195 193 192 194 199 203 201 193 190 194 194 195 196 190 187 184 180 183 186 189 189 191 196 190 186 185 180 180 206 322 330 305 305 312 298 296 304 301 295 301 298 297 326 315 298 312 332 322 320 10 38 304 334 5 352 349 329 322 337 324 326 336 323 309 293 286 289 280 263 268 275 284 293
190 194 189 186 186 182 178 176 176 180 191 198 195 194 195 196 201 201 199 194 188 192 193 191 193 191 188 186 183 185 187 189 191 193 196 189 184 188 187 180 101 344 319 313 310 293 280 281 287 296 302 301 291 290 320 309 309 323 323 312 322 344 171 305 345 349 342 357 335 338 359 342 343 1 335 311 296 292 304 298 278 267 266 276 284
177 199 196 190 184 179 178 176 176 182 192 197 196 199 199 197 201 199 195 195 187 187 189 188 193 193 188 186 187 188 188 190 194 194 196 189 178 181 186 183 178 312 299 297 292 280 278 283 284 291 296 296 297 300 306 301 310 325 323 317 318 317 296 331 343 342 340 349 347 1 14 356 347 350 331 303 302 311 306 295 278 265 264 268 271
172 197 204 199 186 181 180 175 177 187 195 198 196 196 199 196 198 197 191 191 187 186 189 189 190 192 189 187 188 190 188 190 194 197 199 192 181 181 175 197 230 274 277 273 278 282 287 286 285 285 282 288 299 302 300 296 307 327 323 318 315 311 331 333 332 343 334 335 8 17 13 357 348 338 322 303 313 321 315 309 288 252 255 252 250
171 197 210 204 192 184 182 176 177 189 200 201 196 192 195 197 196 194 189 187 189 189 190 190 187 189 191 187 187 190 191 192 195 197 202 199 192 188 184 208 230 245 265 273 276 278 279 281 286 283 280 288 298 301 299 293 304 305 291 293 301 302 316 324 320 328 324 340 16 14 347 333 340 334 329 329 327 323 328 331 303 235 231 240 241
171 212 218 201 193 187 182 179 177 187 200 201 194 192 195 197 195 194 189 185 188 186 188 191 188 188 189 185 186 188 190 195 196 198 203 205 202 200 202 214 229 241 255 267 269 271 278 285 293 291 292 300 296 296 298 298 304 299 296 299 292 290 301 309 315 322 322 350 8 348 312 315 315 327 337 338 336 323 324 328 310 255 218 231 240
181 212 218 197 190 188 184 182 178 182 197 199 194 195 199 197 194 195 192 189 188 180 182 189 186 186 187 184 186 188 190 196 197 199 203 209 212 212 213 220 229 241 250 258 262 268 280 285 286 283 282 282 283 291 299 305 304 303 315 312 302 296 292 296 313 316 313 333 337 312 309 326 325 341 340 333 339 333 324 326 316 300 234 220 231
194 206 211 196 186 186 185 183 180 181 191 196 194 197 201 198 195 195 193 194 191 180 181 187 185 185 186 187 190 189 190 195 199 201 206 211 216 215 215 221 229 239 248 255 258 260 269 276 273 269 269 272 278 284 291 299 302 306 311 306 306 307 298 299 308 303 308 323 323 325 335 336 338 351 346 338 348 349 339 340 324 303 241 209 225
204 206 205 195 184 184 184 184 185 185 189 193 194 196 199 198 197 198 196 195 193 186 184 187 186 186 187 189 192 194 192 195 200 204 209 214 215 216 217 221 230 239 247 254 259 259 258 259 261 262 267 276 278 276 280 287 297 305 302 297 296 299 302 311 309 308 319 321 316 328 335 336 343 356 357 351 354 358 359 8 2 326 258 202 212
206 205 203 195 185 185 185 186 189 190 189 191 193 196 198 199 199 201 202 198 194 189 187 187 188 187 189 192 193 198 199 198 202 205 210 214 213 215 218 223 231 238 243 249 254 257 256 255 255 256 258 266 274 279 282 282 286 290 290 286 280 286 299 302 304 312 314 318 326 327 331 338 342 352 0 355 352 359 13 32 25 12 15 14 206